Location: Arleux
(50.3632°N, 2.8721°E)
Time: 07:37:36
(UTC+00:00)

CZ-2C R/B - Pass Details

Date: 15 December 2019
Orbit: 668 x 784 km, 98.1° (Epoch: 21 January)

Event Time Altitude Azimuth Distance (km) Brightness Sun altitude
Rises 05:12:07 0° 7° (N) 3,034 5.6 -22.6°
Reaches altitude 10° 05:14:31 10° 359° (N) 2,110 4.7 -22.2°
Enters shadow 05:14:57 12° 356° (N) 1,948 4.5 -22.1°
